Weather History for KRSW - October, 2012

Change the Weather History Date:

Wednesday, October 24, 2012

  Actual Average (KFMY) Record (KFMY)
Temperature  
Mean Temperature 78 °F 76 °F  
Max Temperature 87 °F 85 °F 93 °F (1919)
Min Temperature 71 °F 67 °F 50 °F (1937)
Degree Days  
Heating Degree Days 0 0  
Month to date heating degree days 0  
Since 1 July heating degree days 0  
Cooling Degree Days 14 11  
Month to date cooling degree days 328  
Year to date cooling degree days 3574  
Growing Degree Days 28 (Base 50)    
Moisture  
Dew Point 67 °F    
Average Humidity 73    
Maximum Humidity 93    
Minimum Humidity 51    
Precipitation  
Precipitation 0.00 in 0.08 in 4.69 in (2005)
Month to date precipitation 2.38  
Year to date precipitation 51.76  
Sea Level Pressure  
Sea Level Pressure 29.91 in    
Wind  
Wind Speed 10 mph (NE)    
Max Wind Speed 17 mph    
Max Gust Speed 29 mph    
Visibility 10 miles    
Events Rain    
T = Trace of Precipitation, MM = Missing Value Source: NWS Daily Summary

Daily Weather History Graph

Daily Weather History Graph

Search for Another Location

Airport or City:

Trip Planner

Search our weather history database for the weather conditions in past years. The results will help you decide how hot, cold, wet, or windy it might be!

Date:

Astronomy

Oct. 24, 2012 Rise Set
Actual Time 7:31 AM EDT 6:50 PM EDT
Civil Twilight 7:08 AM EDT 7:13 PM EDT
Nautical Twilight 6:40 AM EDT 7:40 PM EDT
Astronomical Twilight 6:13 AM EDT 8:07 PM EDT
Moon 3:42 PM EDT (10/24) 2:52 AM EDT (10/24)
Length of Visible Light 12h 05m
Length of Day
11h 18m
Waxing Gibbous, 76% of the Moon is Illuminated
Oct 24
Waxing Gibbous
Oct 29
Full
Nov 6
Last Quarter
Nov 13
New
Nov 20
First Quarter

Hourly Weather History & Observations

Time (EDT) Temp. Heat Index Dew Point Humidity Pressure Visibility Wind Dir Wind Speed Gust Speed Precip Events Conditions
12:53 AM 71.1 °F - 66.0 °F 84% 29.98 in 10.0 mi NNE 8.1 mph - N/A   Scattered Clouds
1:53 AM 71.1 °F - 66.0 °F 84% 29.96 in 10.0 mi NE 5.8 mph - N/A   Overcast
2:53 AM 72.0 °F - 66.0 °F 81% 29.94 in 10.0 mi NNE 6.9 mph - N/A   Overcast
3:53 AM 72.0 °F - 66.0 °F 81% 29.92 in 10.0 mi NNE 5.8 mph - N/A   Overcast
4:53 AM 72.0 °F - 66.9 °F 84% 29.91 in 10.0 mi NE 6.9 mph - N/A   Overcast
5:53 AM 71.1 °F - 68.0 °F 90% 29.93 in 10.0 mi NE 6.9 mph - N/A   Mostly Cloudy
6:53 AM 71.1 °F - 68.0 °F 90% 29.94 in 10.0 mi NNE 4.6 mph - N/A   Clear
7:53 AM 71.1 °F - 69.1 °F 93% 29.95 in 10.0 mi NNE 6.9 mph - N/A   Overcast
8:53 AM 73.0 °F - 69.1 °F 87% 29.96 in 8.0 mi ENE 10.4 mph - N/A   Overcast
9:53 AM 73.0 °F - 71.1 °F 93% 29.97 in 4.0 mi NE 9.2 mph - 0.00 in Rain Light Rain
10:53 AM 77.0 °F - 71.1 °F 82% 29.96 in 10.0 mi ENE 9.2 mph - 0.00 in   Overcast
11:53 AM 81.0 °F 84.4 °F 70.0 °F 69% 29.95 in 10.0 mi East 15.0 mph - N/A   Overcast
12:53 PM 84.0 °F 87.0 °F 68.0 °F 58% 29.93 in 10.0 mi ENE 17.3 mph - N/A   Overcast
1:53 PM 86.0 °F 88.8 °F 66.9 °F 53% 29.89 in 10.0 mi East 17.3 mph 27.6 mph N/A   Partly Cloudy
2:53 PM 86.0 °F 88.8 °F 66.9 °F 53% 29.87 in 10.0 mi ENE 17.3 mph 28.8 mph N/A   Scattered Clouds
3:53 PM 86.0 °F 88.8 °F 66.9 °F 53% 29.86 in 10.0 mi ENE 16.1 mph 23.0 mph N/A   Mostly Cloudy
4:53 PM 84.0 °F 85.4 °F 64.0 °F 51% 29.85 in 10.0 mi ENE 17.3 mph 25.3 mph N/A   Partly Cloudy
5:53 PM 82.9 °F 84.0 °F 63.0 °F 51% 29.85 in 10.0 mi ENE 15.0 mph - N/A   Clear
6:53 PM 80.1 °F 81.7 °F 64.0 °F 58% 29.86 in 10.0 mi ENE 15.0 mph - N/A   Clear
7:53 PM 79.0 °F - 64.9 °F 62% 29.88 in 10.0 mi NE 13.8 mph - N/A   Mostly Cloudy
8:53 PM 77.0 °F - 66.2 °F 69% 29.90 in 10.0 mi NE 10.4 mph - N/A   Clear
9:53 PM 75.9 °F - 66.0 °F 71% 29.89 in 10.0 mi NE 10.4 mph - N/A   Clear
10:53 PM 75.0 °F - 66.9 °F 76% 29.89 in 10.0 mi NE 9.2 mph - N/A   Clear
11:53 PM 73.9 °F - 68.0 °F 82% 29.88 in 10.0 mi NE 9.2 mph - N/A   Clear